QPF
0.00 0.00 0.00 0.00 0.00 0.01 0.00 0.00 0.00 0.00 0.00 0.00 0.00 0.00 0.00 0.00 0.00 0.00 0.00 0.00 0.00 0.00 0.00 0.00 0.00 0.00 0.00 0.00 0.00 0.00 0.00 0.00 0.00 0.00 0.00 0.00 0.00 0.00 0.00 0.00 0.00 0.00 0.00 0.00 0.00 0.00 0.00 0.00 0.00
0.00 0.00 0.00 0.00 0.00 0.00 0.00 0.00 0.00 0.00 0.00 0.00 0.00 0.00 0.00 0.00 0.00 0.00 0.00 0.00 0.00 0.00 0.00 0.00 0.00 0.00 0.00 0.00 0.00 0.00 0.00 0.00 0.00 0.00 0.00 0.00 0.00 0.00 0.00 0.00 0.00 0.00 0.00 0.00 0.00 0.00 0.00 0.00 0.00
0.00 0.00 0.00 0.00 0.00 0.00 0.00 0.00 0.00 0.00 0.00 0.00 0.00 0.00 0.00 0.00 0.00 0.00 0.00 0.00 0.00 0.00 0.00 0.00 0.00 0.00 0.00 0.00 0.00 0.00 0.00 0.00 0.00 0.00 0.00 0.00 0.00 0.00 0.00 0.00 0.00 0.00 0.00 0.00 0.00 0.00 0.00 0.00 0.00
0.00 0.00 0.00 0.00 0.00 0.00 0.00 0.00 0.00 0.00 0.00 0.00 0.00 0.00 0.00 0.00 0.00 0.00 0.00 0.00 0.00 0.00 0.00 0.00 0.00 0.00 0.00 0.00 0.00 0.00 0.00 0.00 0.00 0.00 0.00 0.00 0.00 0.00 0.00 0.00 0.00 0.00 0.00 0.00 0.00 0.00 0.00 0.00 0.00
0.00 0.00 0.00 0.00 0.00 0.00 0.00 0.00 0.00 0.00 0.00 0.00 0.00 0.00 0.00 0.00 0.00 0.00 0.00 0.00 0.00 0.00 0.00 0.00 0.00 0.00 0.00 0.00 0.00 0.00 0.00 0.00 0.00 0.00 0.00 0.00 0.00 0.00 0.00 0.00 0.00 0.00 0.00 0.00 0.00 0.00 0.00 0.00 0.00
0.00 0.00 0.00 0.00 0.00 0.00 0.00 0.00 0.00 0.00 0.00 0.00 0.00 0.00 0.00 0.00 0.00 0.00 0.00 0.00 0.00 0.00 0.00 0.00 0.00 0.00 0.00 0.00 0.00 0.00 0.00 0.00 0.00 0.00 0.00 0.00 0.00 0.00 0.00 0.00 0.00 0.00 0.00 0.00 0.00 0.00 0.00 0.00 0.00
0.00 0.00 0.00 0.00 0.00 0.00 0.00 0.00 0.00 0.00 0.00 0.00 0.00 0.00 0.00 0.00 0.00 0.00 0.00 0.00 0.00 0.00 0.00 0.00 0.00 0.00 0.00 0.00 0.00 0.00 0.00 0.00 0.00 0.00 0.00 0.00 0.00 0.00 0.00 0.00 0.00 0.00 0.00 0.00 0.00 0.00 0.00 0.00 0.00
0.00 0.00 0.00 0.00 0.00 0.00 0.00 0.00 0.00 0.00 0.00 0.00 0.00 0.00 0.00 0.00 0.00 0.00 0.00 0.00 0.00 0.00 0.00 0.00 0.00 0.00 0.00 0.00 0.00 0.00 0.00 0.00 0.00 0.00 0.00 0.00 0.00 0.00 0.00 0.00 0.00 0.00 0.00 0.00 0.00 0.00 0.00 0.00 0.00
0.00 0.00 0.00 0.00 0.00 0.00 0.00 0.00 0.00 0.00 0.00 0.00 0.00 0.00 0.00 0.00 0.00 0.00 0.00 0.00 0.00 0.00 0.00 0.00 0.00 0.00 0.00 0.00 0.00 0.00 0.00 0.00 0.00 0.00 0.00 0.00 0.00 0.00 0.00 0.00 0.00 0.00 0.00 0.00 0.00 0.00 0.00 0.00 0.00
0.00 0.00 0.00 0.00 0.00 0.00 0.00 0.00 0.00 0.00 0.00 0.00 0.00 0.00 0.00 0.00 0.00 0.00 0.00 0.00 0.00 0.00 0.00 0.00 0.00 0.00 0.00 0.00 0.00 0.00 0.00 0.00 0.00 0.00 0.00 0.00 0.00 0.00 0.00 0.00 0.00 0.00 0.00 0.00 0.00 0.00 0.00 0.00 0.00
0.00 0.00 0.00 0.00 0.00 0.00 0.00 0.00 0.00 0.00 0.00 0.00 0.00 0.00 0.00 0.00 0.00 0.00 0.00 0.00 0.00 0.00 0.00 0.00 0.00 0.00 0.00 0.00 0.00 0.00 0.00 0.00 0.00 0.00 0.00 0.00 0.00 0.00 0.00 0.00 0.00 0.00 0.00 0.00 0.00 0.00 0.00 0.00 0.00
0.00 0.00 0.00 0.00 0.00 0.00 0.00 0.00 0.00 0.00 0.00 0.00 0.00 0.00 0.00 0.00 0.00 0.00 0.00 0.00 0.00 0.00 0.00 0.00 0.00 0.00 0.00 0.00 0.00 0.00 0.00 0.00 0.00 0.00 0.00 0.00 0.00 0.00 0.00 0.00 0.00 0.00 0.00 0.00 0.00 0.00 0.00 0.00 0.00
0.00 0.00 0.00 0.00 0.00 0.00 0.00 0.00 0.00 0.00 0.00 0.00 0.00 0.00 0.00 0.00 0.00 0.00 0.00 0.00 0.00 0.00 0.00 0.00 0.00 0.00 0.00 0.00 0.00 0.00 0.00 0.00 0.00 0.00 0.00 0.00 0.00 0.00 0.00 0.00 0.00 0.00 0.00 0.00 0.00 0.00 0.00 0.00 0.00
0.00 0.00 0.00 0.00 0.00 0.00 0.00 0.00 0.00 0.00 0.00 0.00 0.00 0.00 0.00 0.00 0.00 0.00 0.00 0.00 0.00 0.00 0.00 0.00 0.00 0.00 0.00 0.00 0.00 0.00 0.00 0.00 0.00 0.00 0.00 0.00 0.00 0.00 0.00 0.00 0.00 0.00 0.00 0.00 0.00 0.00 0.00 0.00 0.00
0.00 0.00 0.00 0.00 0.00 0.00 0.00 0.00 0.00 0.00 0.00 0.00 0.00 0.00 0.00 0.00 0.00 0.00 0.00 0.00 0.00 0.00 0.00 0.00 0.00 0.00 0.00 0.00 0.00 0.00 0.00 0.00 0.00 0.00 0.00 0.00 0.00 0.00 0.00 0.00 0.00 0.00 0.00 0.00 0.00 0.00 0.00 0.00 0.00
0.00 0.00 0.00 0.00 0.00 0.00 0.00 0.00 0.00 0.00 0.00 0.00 0.00 0.00 0.00 0.00 0.00 0.00 0.00 0.00 0.00 0.00 0.00 0.00 0.00 0.00 0.00 0.00 0.00 0.00 0.00 0.00 0.00 0.00 0.00 0.00 0.00 0.00 0.00 0.00 0.00 0.00 0.00 0.00 0.00 0.00 0.00 0.00 0.00
0.00 0.00 0.00 0.00 0.00 0.00 0.00 0.00 0.00 0.00 0.00 0.00 0.00 0.00 0.00 0.00 0.00 0.00 0.00 0.00 0.00 0.00 0.00 0.00 0.00 0.00 0.00 0.00 0.00 0.00 0.00 0.00 0.00 0.00 0.00 0.00 0.00 0.00 0.00 0.00 0.00 0.00 0.00 0.00 0.00 0.00 0.00 0.00 0.00
0.00 0.00 0.00 0.00 0.00 0.00 0.00 0.00 0.00 0.00 0.00 0.00 0.00 0.00 0.00 0.00 0.00 0.00 0.00 0.00 0.00 0.00 0.00 0.00 0.00 0.00 0.00 0.00 0.00 0.00 0.00 0.00 0.00 0.00 0.00 0.00 0.00 0.00 0.00 0.00 0.00 0.00 0.00 0.00 0.00 0.00 0.00 0.00 0.00
0.00 0.00 0.00 0.00 0.00 0.00 0.00 0.00 0.00 0.00 0.00 0.00 0.00 0.00 0.00 0.00 0.00 0.00 0.00 0.00 0.00 0.00 0.00 0.00 0.00 0.00 0.00 0.00 0.00 0.00 0.00 0.00 0.00 0.00 0.00 0.00 0.00 0.00 0.00 0.00 0.00 0.00 0.00 0.00 0.00 0.00 0.00 0.00 0.00
0.00 0.00 0.00 0.00 0.00 0.00 0.00 0.00 0.00 0.00 0.00 0.00 0.00 0.00 0.00 0.00 0.00 0.00 0.00 0.00 0.00 0.00 0.00 0.00 0.00 0.00 0.00 0.00 0.00 0.00 0.00 0.00 0.00 0.00 0.00 0.00 0.00 0.00 0.00 0.00 0.00 0.00 0.00 0.00 0.00 0.00 0.00 0.00 0.00
0.00 0.00 0.00 0.00 0.00 0.00 0.00 0.00 0.00 0.00 0.00 0.00 0.00 0.00 0.00 0.00 0.00 0.00 0.00 0.00 0.00 0.00 0.00 0.00 0.00 0.00 0.00 0.00 0.00 0.00 0.00 0.00 0.00 0.00 0.00 0.00 0.00 0.00 0.00 0.00 0.00 0.00 0.00 0.00 0.00 0.00 0.00 0.00 0.00
0.00 0.00 0.00 0.00 0.00 0.00 0.00 0.00 0.00 0.00 0.00 0.00 0.00 0.00 0.00 0.00 0.00 0.00 0.00 0.00 0.00 0.00 0.00 0.00 0.00 0.00 0.00 0.00 0.00 0.00 0.00 0.00 0.00 0.00 0.00 0.00 0.00 0.00 0.00 0.00 0.00 0.00 0.00 0.00 0.00 0.00 0.00 0.00 0.00
0.00 0.00 0.00 0.00 0.00 0.00 0.00 0.00 0.00 0.00 0.00 0.00 0.00 0.00 0.00 0.00 0.00 0.00 0.00 0.00 0.00 0.00 0.00 0.00 0.00 0.00 0.00 0.00 0.00 0.00 0.00 0.00 0.00 0.00 0.00 0.00 0.00 0.00 0.00 0.00 0.00 0.00 0.00 0.00 0.00 0.00 0.00 0.00 0.00
0.00 0.00 0.00 0.00 0.00 0.00 0.00 0.00 0.00 0.00 0.00 0.00 0.00 0.00 0.00 0.00 0.00 0.00 0.00 0.00 0.00 0.00 0.00 0.00 0.00 0.00 0.00 0.00 0.00 0.00 0.00 0.00 0.00 0.00 0.00 0.00 0.00 0.00 0.00 0.00 0.00 0.00 0.00 0.00 0.00 0.00 0.00 0.00 0.00
0.00 0.00 0.00 0.00 0.00 0.00 0.00 0.00 0.00 0.00 0.00 0.00 0.00 0.00 0.00 0.00 0.00 0.00 0.00 0.00 0.00 0.00 0.00 0.00 0.00 0.00 0.00 0.00 0.00 0.00 0.00 0.00 0.00 0.00 0.00 0.00 0.00 0.00 0.00 0.00 0.00 0.00 0.00 0.00 0.00 0.00 0.00 0.00 0.00
0.00 0.00 0.00 0.00 0.00 0.00 0.00 0.00 0.00 0.00 0.00 0.00 0.00 0.00 0.00 0.00 0.00 0.00 0.00 0.00 0.00 0.00 0.00 0.00 0.00 0.00 0.00 0.00 0.00 0.00 0.00 0.00 0.00 0.00 0.00 0.00 0.00 0.00 0.00 0.00 0.00 0.00 0.00 0.00 0.00 0.00 0.00 0.00 0.00
0.00 0.00 0.00 0.00 0.00 0.00 0.00 0.00 0.00 0.00 0.00 0.00 0.00 0.00 0.00 0.00 0.00 0.00 0.00 0.00 0.00 0.00 0.00 0.00 0.00 0.00 0.00 0.00 0.00 0.00 0.00 0.00 0.00 0.00 0.00 0.00 0.00 0.00 0.00 0.00 0.00 0.00 0.00 0.00 0.00 0.00 0.00 0.00 0.00
0.00 0.00 0.00 0.00 0.00 0.00 0.00 0.00 0.00 0.00 0.00 0.00 0.00 0.00 0.00 0.00 0.00 0.00 0.00 0.00 0.00 0.00 0.00 0.00 0.00 0.00 0.00 0.00 0.00 0.00 0.00 0.00 0.00 0.00 0.00 0.00 0.00 0.00 0.00 0.00 0.00 0.00 0.00 0.00 0.00 0.00 0.00 0.00 0.00
0.00 0.00 0.00 0.00 0.00 0.00 0.00 0.00 0.00 0.00 0.00 0.00 0.00 0.00 0.00 0.00 0.00 0.00 0.00 0.00 0.00 0.00 0.00 0.00 0.00 0.00 0.00 0.00 0.00 0.00 0.00 0.00 0.00 0.00 0.00 0.00 0.00 0.00 0.00 0.00 0.00 0.00 0.00 0.00 0.00 0.00 0.00 0.00 0.00
0.00 0.00 0.00 0.00 0.00 0.00 0.00 0.00 0.00 0.00 0.00 0.00 0.00 0.00 0.00 0.00 0.00 0.00 0.00 0.00 0.00 0.00 0.00 0.00 0.00 0.00 0.00 0.00 0.00 0.00 0.00 0.00 0.00 0.00 0.00 0.00 0.00 0.00 0.00 0.00 0.00 0.00 0.00 0.00 0.00 0.00 0.00 0.00 0.00
MSLP
1015.15 1015.26 1015.58 1016.02 1017.56 1018.53 1019.71 1020.21 1020.29 1020.79 1021.49 1022.07 1021.97 1022.65 1024.16 1025.07 1025.82 1027.13 1027.52 1027.66 1027.70 1027.86 1027.76 1027.53 1027.39 1027.35 1027.08 1026.82 1026.62 1026.59 1026.62 1026.48 1026.41 1026.20 1026.21 1026.10 1025.96 1025.54 1025.22 1025.04 1024.76 1024.49 1024.21 1023.99 1023.75 1023.41 1023.13 1022.83 1022.42
1015.23 1015.32 1016.04 1016.94 1018.22 1019.51 1020.45 1020.63 1020.81 1021.08 1021.81 1022.39 1023.02 1023.97 1024.72 1026.18 1026.57 1027.21 1027.58 1027.83 1027.59 1027.78 1027.77 1027.75 1027.66 1027.57 1027.24 1027.14 1026.86 1026.98 1027.01 1026.76 1026.76 1026.58 1026.41 1026.34 1026.30 1026.09 1025.84 1025.54 1025.16 1024.92 1024.66 1024.36 1024.01 1023.78 1023.55 1023.21 1022.94
1015.26 1015.60 1016.85 1017.70 1019.09 1020.03 1020.64 1021.03 1021.18 1021.56 1021.98 1022.32 1023.63 1024.64 1025.65 1026.90 1026.97 1027.14 1027.39 1027.77 1027.68 1027.95 1027.96 1027.90 1027.85 1027.69 1027.45 1027.22 1027.17 1027.13 1027.14 1027.14 1027.12 1027.00 1026.85 1026.76 1026.58 1026.28 1026.15 1025.89 1025.55 1025.20 1024.82 1024.61 1024.28 1024.03 1023.87 1023.50 1023.23
1015.65 1016.34 1017.54 1018.44 1019.69 1020.22 1020.54 1021.04 1021.32 1021.71 1022.21 1022.75 1024.02 1025.64 1026.46 1026.84 1026.88 1027.09 1027.67 1027.68 1027.89 1028.26 1028.16 1028.00 1028.00 1027.89 1027.87 1027.80 1027.67 1027.68 1027.62 1027.51 1027.42 1027.36 1027.23 1027.06 1026.84 1026.56 1026.39 1026.22 1026.06 1025.64 1025.21 1024.82 1024.43 1024.23 1023.90 1023.51 1023.27
1016.17 1017.12 1018.26 1019.45 1020.26 1020.48 1020.57 1020.80 1021.16 1021.92 1022.73 1023.61 1024.26 1026.31 1026.87 1026.97 1027.08 1027.45 1027.63 1027.67 1028.13 1028.45 1028.28 1028.14 1028.15 1028.14 1028.08 1027.98 1027.92 1027.82 1027.83 1027.78 1027.62 1027.42 1027.14 1026.94 1026.68 1026.57 1026.43 1026.27 1026.04 1025.61 1025.29 1025.01 1024.62 1024.30 1023.90 1023.65 1023.38
1016.88 1017.81 1019.05 1020.03 1020.54 1020.69 1020.89 1020.98 1021.50 1022.26 1023.21 1024.02 1025.08 1026.27 1027.19 1027.18 1027.37 1027.73 1027.70 1027.93 1028.09 1028.43 1028.43 1028.29 1028.00 1028.01 1027.97 1028.08 1028.02 1027.92 1027.85 1027.74 1027.52 1027.32 1027.16 1027.01 1026.96 1026.66 1026.48 1026.31 1025.97 1025.55 1025.33 1025.00 1024.69 1024.32 1023.98 1023.58 1023.48
1017.43 1018.64 1019.71 1020.25 1020.81 1020.90 1021.14 1021.30 1021.93 1022.67 1023.44 1024.14 1024.84 1026.56 1027.41 1027.58 1027.50 1027.70 1027.87 1028.12 1028.29 1028.42 1028.56 1028.67 1028.53 1028.33 1028.20 1027.96 1027.90 1027.84 1027.75 1027.67 1027.70 1027.64 1027.49 1027.39 1027.38 1026.99 1026.73 1026.52 1026.03 1025.79 1025.44 1025.26 1024.96 1024.62 1024.28 1024.17 1024.23
1017.67 1018.97 1020.08 1020.68 1020.94 1020.96 1021.04 1021.54 1022.25 1022.91 1023.89 1024.19 1024.85 1026.26 1027.34 1027.15 1027.53 1027.86 1028.21 1028.43 1028.61 1028.67 1028.71 1028.82 1028.75 1028.68 1028.62 1028.43 1027.95 1027.96 1027.85 1027.85 1027.94 1027.93 1027.88 1027.88 1027.88 1027.55 1027.19 1026.89 1026.47 1026.14 1025.93 1025.74 1025.61 1025.36 1024.99 1024.97 1025.08
1017.60 1019.42 1020.46 1020.73 1020.78 1020.91 1021.20 1021.78 1022.77 1023.57 1024.08 1024.94 1025.52 1025.82 1025.85 1026.56 1027.48 1028.16 1028.65 1028.89 1029.02 1029.07 1028.98 1028.92 1028.92 1028.86 1028.74 1028.61 1028.35 1028.43 1028.26 1028.20 1028.33 1028.41 1028.09 1028.41 1028.28 1028.04 1027.77 1027.30 1026.98 1026.80 1026.89 1026.52 1026.34 1026.03 1025.80 1025.62 1025.53
1018.45 1019.99 1020.36 1020.53 1020.55 1020.83 1021.24 1021.74 1022.81 1023.80 1024.68 1025.67 1026.03 1026.23 1026.30 1026.89 1027.54 1028.27 1028.73 1029.09 1029.19 1029.23 1029.04 1028.97 1028.98 1028.89 1028.82 1028.59 1028.86 1028.88 1028.84 1028.85 1028.80 1028.70 1028.67 1028.61 1028.47 1028.14 1028.03 1027.63 1027.45 1027.33 1027.40 1027.15 1026.77 1026.47 1026.34 1026.12 1025.79
1019.02 1020.02 1020.21 1020.42 1020.36 1020.63 1021.31 1022.04 1022.63 1023.68 1024.68 1025.26 1025.94 1026.53 1026.89 1027.31 1027.81 1028.28 1028.69 1028.74 1028.89 1028.95 1028.88 1028.91 1028.94 1029.03 1029.04 1029.05 1029.17 1029.11 1029.11 1029.04 1028.92 1028.83 1028.82 1028.81 1028.64 1028.49 1028.52 1028.40 1028.26 1028.02 1027.70 1027.71 1027.33 1027.04 1026.77 1026.44 1025.99
1019.56 1020.16 1020.24 1020.40 1020.55 1020.84 1021.39 1021.93 1022.82 1023.63 1023.85 1024.04 1025.36 1025.99 1026.85 1027.42 1027.81 1028.25 1028.61 1028.70 1028.77 1028.82 1028.80 1028.70 1028.83 1029.01 1029.15 1029.21 1029.30 1029.22 1029.12 1029.08 1029.05 1029.06 1028.81 1028.88 1028.96 1028.78 1028.74 1028.61 1028.52 1028.38 1028.07 1027.83 1027.57 1027.28 1026.97 1026.62 1026.20
1019.75 1020.31 1020.49 1020.59 1020.69 1020.98 1021.45 1022.11 1022.80 1023.69 1024.04 1024.48 1025.57 1026.30 1026.85 1027.39 1027.73 1027.94 1027.87 1028.28 1028.52 1028.68 1028.68 1028.76 1028.79 1028.83 1029.00 1028.93 1029.17 1029.02 1028.97 1029.03 1029.06 1028.89 1028.90 1028.82 1029.00 1028.95 1028.77 1028.68 1028.51 1028.29 1028.09 1027.88 1027.58 1027.25 1026.98 1026.73 1026.43
1020.05 1020.52 1020.78 1020.85 1020.99 1021.18 1021.67 1022.34 1022.86 1024.03 1024.54 1025.27 1025.93 1026.54 1026.98 1027.23 1027.44 1027.81 1027.96 1028.14 1028.33 1028.44 1028.65 1028.69 1028.69 1028.75 1028.82 1028.96 1029.09 1029.10 1028.96 1029.14 1029.05 1029.05 1028.86 1028.72 1028.86 1028.86 1028.73 1028.65 1028.46 1028.32 1028.12 1027.79 1027.54 1027.29 1027.05 1026.79 1026.45
1020.38 1020.86 1021.10 1021.23 1021.29 1021.48 1021.81 1022.71 1022.87 1023.70 1024.68 1025.56 1026.19 1026.62 1027.03 1027.04 1027.27 1027.27 1027.34 1027.91 1028.23 1028.38 1028.36 1028.49 1028.56 1028.65 1028.76 1028.93 1029.13 1029.02 1029.08 1029.09 1029.16 1029.00 1028.98 1028.78 1028.75 1028.78 1028.79 1028.74 1028.51 1028.28 1028.03 1027.75 1027.50 1027.35 1027.02 1026.79 1026.32
1020.49 1020.87 1021.25 1021.03 1021.34 1021.79 1022.31 1022.40 1022.89 1023.83 1024.73 1025.66 1026.29 1026.54 1026.82 1026.88 1026.87 1026.84 1027.08 1027.54 1027.92 1028.12 1028.30 1028.26 1027.88 1028.53 1028.79 1028.89 1029.01 1028.99 1028.96 1029.07 1029.09 1029.02 1029.05 1028.83 1028.65 1028.70 1028.73 1028.70 1028.54 1028.22 1028.09 1027.91 1027.67 1027.46 1027.22 1026.86 1026.47
1020.69 1020.90 1021.05 1020.89 1021.08 1021.80 1022.63 1022.61 1022.95 1023.89 1024.63 1025.52 1026.00 1026.39 1026.50 1026.69 1026.74 1026.62 1026.68 1027.04 1027.26 1027.61 1027.93 1028.09 1028.16 1028.45 1028.64 1028.68 1028.83 1029.00 1028.94 1029.15 1029.04 1029.14 1028.96 1028.72 1028.58 1028.62 1028.69 1028.64 1028.43 1028.31 1028.27 1028.01 1027.84 1027.43 1027.14 1026.60 1026.23
1020.43 1020.51 1020.41 1020.65 1020.95 1021.62 1022.39 1022.47 1023.09 1023.76 1024.36 1024.79 1025.37 1025.90 1026.17 1026.23 1025.99 1026.07 1026.22 1026.58 1026.76 1027.06 1027.42 1027.78 1028.09 1028.38 1028.51 1028.75 1028.94 1029.14 1029.17 1029.09 1029.08 1029.09 1028.84 1028.57 1028.65 1028.61 1028.65 1028.57 1028.47 1028.39 1028.29 1028.09 1027.89 1027.73 1027.18 1026.87 1026.37
1019.81 1020.05 1020.19 1020.11 1020.47 1021.30 1021.59 1021.85 1022.29 1023.03 1023.94 1024.47 1024.85 1025.15 1025.49 1025.44 1025.13 1025.50 1025.72 1026.09 1026.59 1026.93 1027.24 1027.56 1027.97 1028.19 1028.51 1028.85 1029.19 1029.33 1029.19 1029.14 1029.06 1028.92 1028.51 1028.58 1028.56 1028.50 1028.54 1028.60 1028.47 1028.33 1028.22 1028.15 1027.85 1027.64 1027.35 1026.85 1026.25
1019.63 1019.95 1020.15 1020.22 1020.62 1021.31 1021.17 1020.81 1020.69 1021.44 1021.91 1022.61 1023.31 1024.03 1024.35 1024.71 1025.03 1025.28 1025.64 1025.86 1026.09 1026.45 1026.71 1027.18 1027.59 1027.89 1028.12 1028.40 1028.66 1028.79 1028.88 1028.84 1028.76 1028.52 1028.45 1028.43 1028.26 1028.27 1028.35 1028.44 1028.40 1028.23 1028.14 1027.96 1027.75 1027.57 1027.49 1027.13 1026.44
1019.78 1020.10 1020.35 1020.83 1020.81 1021.05 1021.34 1020.47 1019.92 1020.28 1020.90 1021.75 1022.37 1022.80 1023.29 1023.52 1024.07 1024.72 1025.24 1025.40 1025.67 1026.06 1026.39 1026.71 1027.13 1027.44 1027.68 1027.88 1028.30 1028.49 1028.65 1028.73 1028.71 1028.59 1028.49 1028.19 1028.04 1028.04 1028.08 1028.14 1028.16 1027.99 1027.97 1027.97 1027.70 1027.34 1027.30 1027.36 1026.74
1020.45 1020.54 1020.80 1021.16 1021.62 1021.72 1021.59 1021.40 1019.66 1019.84 1020.36 1020.89 1021.40 1021.95 1022.30 1022.70 1023.04 1023.57 1024.27 1024.91 1025.19 1025.31 1025.75 1026.11 1026.60 1026.97 1027.24 1027.61 1028.01 1028.25 1028.57 1028.67 1028.46 1028.29 1028.14 1028.05 1027.86 1027.78 1027.80 1027.87 1027.87 1027.80 1027.72 1027.72 1027.46 1026.87 1027.10 1027.18 1027.03
1020.79 1021.01 1021.32 1021.61 1022.15 1022.51 1021.92 1022.12 1019.07 1019.37 1019.59 1019.61 1020.07 1020.71 1021.14 1021.54 1022.11 1022.69 1023.16 1023.50 1024.03 1024.73 1025.22 1025.61 1026.15 1026.54 1026.85 1027.23 1027.49 1027.85 1028.28 1028.23 1028.10 1028.06 1028.05 1027.93 1027.64 1027.52 1027.56 1027.54 1027.53 1027.50 1027.39 1027.26 1027.12 1026.86 1026.86 1026.82 1026.80
1020.98 1021.34 1021.95 1022.64 1022.89 1023.11 1021.93 1021.98 1019.34 1018.72 1018.02 1018.01 1018.44 1019.39 1019.86 1020.62 1021.25 1021.77 1022.16 1022.80 1023.47 1024.18 1024.75 1025.14 1025.71 1026.07 1026.36 1026.69 1027.06 1027.37 1027.71 1027.86 1028.07 1027.95 1027.97 1027.82 1027.71 1027.47 1027.28 1027.15 1027.22 1027.26 1027.17 1027.00 1026.82 1026.60 1026.57 1026.42 1026.36
1021.62 1022.34 1022.72 1023.34 1023.67 1022.96 1021.76 1021.58 1018.54 1017.23 1017.07 1017.28 1017.64 1018.22 1018.87 1019.74 1020.53 1021.22 1021.84 1022.46 1023.08 1023.58 1024.09 1024.59 1025.05 1025.53 1025.76 1026.13 1026.52 1026.75 1027.04 1027.24 1027.45 1027.55 1027.61 1027.69 1027.62 1027.36 1027.10 1026.99 1026.94 1026.95 1026.73 1026.58 1026.50 1026.30 1026.30 1026.10 1025.98
1022.04 1022.63 1023.42 1023.86 1024.19 1023.20 1021.91 1020.37 1017.17 1016.60 1016.55 1016.81 1016.96 1017.37 1018.22 1019.13 1019.76 1020.32 1020.72 1021.27 1021.91 1022.64 1023.36 1023.90 1024.40 1024.85 1025.17 1025.62 1025.86 1026.12 1026.44 1026.66 1026.87 1026.93 1027.05 1027.12 1027.15 1026.92 1026.64 1026.59 1026.54 1026.46 1026.29 1026.16 1026.14 1026.06 1025.92 1025.61 1025.49
1022.49 1023.02 1023.51 1024.05 1024.46 1024.15 1021.63 1019.43 1016.88 1016.11 1016.14 1016.34 1016.86 1017.55 1018.16 1018.72 1019.13 1019.61 1020.22 1020.62 1021.08 1021.74 1022.32 1022.91 1023.55 1024.02 1024.41 1024.83 1025.23 1025.51 1025.79 1026.10 1026.28 1026.38 1026.41 1026.58 1026.50 1026.28 1026.20 1026.13 1026.08 1025.99 1025.87 1025.83 1025.82 1025.80 1025.54 1025.35 1025.11
1022.69 1023.21 1023.70 1024.62 1025.21 1024.69 1022.01 1020.00 1017.73 1016.51 1016.27 1016.32 1016.81 1017.27 1017.71 1018.31 1018.75 1019.14 1019.53 1019.92 1020.52 1021.00 1021.55 1022.20 1022.65 1023.04 1023.50 1023.98 1024.39 1024.75 1025.02 1025.34 1025.60 1025.81 1025.96 1026.00 1025.89 1025.85 1025.84 1025.70 1025.59 1025.52 1025.46 1025.44 1025.45 1025.41 1025.06 1025.02 1024.86
1023.03 1023.37 1024.02 1024.76 1025.36 1025.18 1023.48 1019.68 1016.60 1016.03 1015.80 1016.04 1016.29 1016.69 1016.96 1017.59 1017.89 1018.28 1018.71 1019.18 1019.70 1020.37 1021.00 1021.49 1022.04 1022.46 1022.91 1023.28 1023.67 1024.08 1024.41 1024.71 1024.98 1025.16 1025.27 1025.34 1025.31 1025.34 1025.43 1025.24 1025.18 1025.14 1025.13 1025.08 1025.14 1025.01 1024.78 1024.65 1024.63
1022.26 1022.65 1023.50 1024.98 1025.52 1025.27 1024.09 1019.18 1016.33 1015.82 1015.62 1015.74 1015.97 1016.31 1016.59 1016.80 1016.88 1017.36 1017.86 1018.53 1019.23 1019.67 1020.24 1020.73 1021.22 1021.57 1021.88 1022.42 1023.01 1023.42 1023.79 1024.13 1024.38 1024.47 1024.63 1024.67 1024.79 1024.76 1024.89 1024.79 1024.82 1024.82 1024.76 1024.71 1024.70 1024.59 1024.40 1024.36 1024.33
Thickness
5748 5747 5746 5737 5703 5696 5682 5688 5693 5685 5678 5676 5681 5672 5655 5646 5645 5640 5634 5632 5630 5627 5625 5623 5620 5618 5617 5616 5615 5613 5612 5611 5610 5610 5611 5611 5612 5615 5619 5621 5624 5628 5630 5631 5634 5640 5644 5650 5655
5747 5747 5738 5720 5691 5677 5674 5686 5680 5685 5677 5671 5671 5664 5654 5640 5641 5634 5630 5627 5626 5622 5619 5616 5612 5610 5609 5608 5607 5604 5602 5601 5600 5600 5600 5601 5601 5602 5604 5607 5611 5614 5618 5621 5624 5627 5632 5637 5642
5748 5746 5721 5703 5685 5675 5672 5681 5679 5681 5676 5682 5667 5657 5649 5636 5638 5635 5630 5624 5622 5615 5611 5607 5603 5601 5600 5598 5596 5594 5592 5589 5588 5587 5588 5588 5589 5591 5592 5595 5599 5603 5607 5611 5614 5616 5618 5624 5629
5741 5732 5719 5692 5684 5687 5682 5678 5680 5678 5678 5674 5660 5645 5643 5639 5637 5634 5625 5622 5617 5610 5605 5601 5596 5592 5588 5586 5583 5580 5578 5577 5575 5574 5574 5575 5576 5577 5578 5580 5582 5586 5592 5597 5602 5606 5609 5613 5618
5738 5721 5694 5685 5681 5686 5688 5685 5682 5676 5670 5663 5661 5638 5635 5638 5634 5628 5623 5617 5610 5602 5596 5593 5587 5583 5580 5577 5574 5572 5569 5567 5565 5564 5564 5564 5566 5566 5567 5568 5570 5573 5576 5581 5587 5591 5597 5600 5603
5720 5714 5686 5674 5678 5686 5685 5686 5680 5671 5665 5659 5648 5639 5632 5633 5628 5620 5616 5610 5602 5595 5591 5588 5585 5582 5578 5575 5572 5569 5566 5563 5562 5562 5560 5559 5558 5559 5559 5560 5562 5564 5565 5567 5572 5577 5582 5586 5589
5717 5699 5689 5678 5672 5677 5677 5681 5672 5666 5664 5659 5653 5635 5629 5627 5623 5615 5609 5603 5598 5592 5588 5584 5581 5578 5576 5574 5571 5568 5565 5563 5560 5558 5558 5556 5554 5554 5554 5554 5556 5558 5559 5559 5560 5563 5566 5569 5572
5715 5701 5689 5677 5670 5671 5681 5678 5672 5669 5661 5665 5657 5635 5625 5626 5619 5610 5604 5600 5596 5591 5587 5583 5579 5576 5573 5571 5570 5566 5564 5560 5557 5555 5553 5551 5549 5548 5549 5549 5550 5550 5552 5551 5551 5551 5553 5553 5553
5727 5689 5676 5677 5679 5677 5680 5675 5671 5664 5657 5652 5645 5641 5640 5628 5616 5607 5601 5595 5590 5588 5586 5583 5579 5575 5572 5569 5566 5563 5559 5557 5553 5550 5550 5547 5546 5545 5544 5544 5543 5542 5540 5542 5541 5541 5541 5542 5543
5706 5681 5686 5687 5686 5679 5680 5679 5668 5659 5651 5643 5640 5635 5632 5624 5616 5608 5601 5592 5589 5586 5584 5583 5578 5575 5572 5568 5565 5561 5557 5554 5551 5548 5546 5544 5543 5542 5540 5541 5539 5537 5534 5534 5534 5534 5533 5535 5537
5706 5686 5693 5689 5691 5688 5680 5674 5674 5655 5651 5644 5639 5632 5628 5623 5616 5609 5601 5597 5592 5589 5586 5583 5579 5574 5571 5568 5563 5560 5556 5553 5551 5548 5545 5542 5541 5539 5537 5535 5533 5531 5529 5528 5527 5528 5526 5527 5529
5697 5696 5694 5692 5690 5688 5681 5680 5668 5662 5664 5661 5646 5638 5629 5623 5617 5608 5605 5600 5594 5591 5588 5586 5581 5576 5572 5567 5563 5560 5556 5554 5550 5546 5546 5543 5539 5538 5536 5533 5531 5528 5526 5524 5523 5522 5519 5518 5518
5699 5695 5693 5692 5689 5686 5682 5677 5672 5665 5660 5654 5645 5640 5634 5623 5617 5612 5611 5606 5599 5595 5593 5589 5585 5580 5576 5572 5565 5565 5562 5557 5553 5552 5547 5545 5541 5538 5535 5533 5530 5528 5525 5523 5522 5520 5518 5516 5514
5702 5695 5691 5692 5689 5688 5680 5676 5676 5663 5655 5650 5646 5639 5632 5628 5622 5616 5613 5609 5604 5600 5594 5591 5587 5583 5580 5575 5571 5566 5565 5557 5556 5552 5550 5546 5542 5539 5537 5534 5531 5528 5524 5522 5519 5517 5514 5512 5510
5698 5690 5689 5685 5686 5684 5683 5672 5672 5665 5656 5650 5645 5638 5634 5632 5628 5626 5622 5614 5607 5602 5599 5595 5590 5586 5583 5577 5572 5570 5566 5561 5557 5555 5549 5547 5543 5539 5536 5532 5530 5527 5524 5521 5518 5514 5511 5508 5506
5699 5690 5678 5688 5683 5683 5680 5670 5676 5664 5658 5650 5645 5639 5637 5636 5633 5630 5625 5619 5612 5608 5602 5599 5595 5589 5584 5580 5576 5572 5567 5562 5558 5555 5549 5546 5544 5539 5535 5532 5528 5525 5521 5517 5515 5511 5508 5505 5501
5690 5681 5681 5688 5686 5681 5675 5676 5679 5663 5663 5654 5645 5642 5639 5637 5635 5633 5630 5625 5620 5614 5607 5602 5597 5591 5587 5583 5578 5573 5568 5563 5560 5554 5551 5547 5544 5538 5534 5530 5526 5522 5518 5515 5511 5509 5505 5501 5497
5687 5686 5693 5688 5689 5682 5675 5671 5676 5667 5664 5664 5652 5646 5641 5639 5643 5639 5636 5630 5625 5619 5612 5606 5600 5594 5589 5583 5578 5573 5568 5563 5559 5554 5551 5547 5541 5535 5531 5526 5522 5517 5513 5509 5504 5499 5498 5494 5487
5701 5696 5693 5696 5697 5686 5678 5677 5681 5676 5665 5660 5654 5649 5646 5646 5651 5643 5640 5634 5627 5621 5615 5609 5602 5596 5590 5584 5577 5571 5568 5563 5560 5554 5551 5545 5538 5533 5528 5523 5518 5514 5508 5503 5498 5492 5486 5481 5477
5699 5693 5689 5695 5694 5686 5684 5686 5692 5685 5685 5681 5675 5664 5658 5655 5649 5643 5640 5635 5631 5626 5619 5612 5605 5599 5593 5587 5581 5576 5570 5565 5560 5556 5551 5544 5538 5532 5526 5520 5515 5509 5504 5499 5493 5486 5478 5469 5461
5692 5689 5688 5686 5689 5687 5681 5686 5701 5696 5692 5684 5679 5676 5670 5667 5660 5648 5642 5639 5633 5627 5621 5616 5608 5601 5595 5590 5582 5576 5570 5564 5558 5554 5549 5544 5539 5532 5525 5518 5512 5507 5500 5493 5488 5482 5472 5458 5447
5681 5688 5688 5684 5673 5667 5683 5668 5693 5699 5686 5685 5683 5673 5676 5668 5668 5661 5652 5642 5635 5632 5626 5620 5611 5603 5597 5591 5583 5576 5569 5562 5558 5554 5550 5544 5538 5532 5525 5517 5511 5504 5498 5492 5485 5478 5466 5452 5436
5681 5683 5681 5680 5668 5663 5672 5659 5691 5696 5697 5692 5688 5684 5682 5677 5671 5664 5660 5654 5646 5636 5628 5621 5612 5605 5600 5593 5586 5577 5568 5563 5559 5554 5549 5543 5538 5532 5524 5517 5510 5504 5498 5491 5483 5475 5462 5447 5431
5683 5680 5667 5657 5652 5649 5673 5665 5688 5695 5708 5714 5703 5694 5693 5682 5671 5670 5665 5656 5647 5637 5629 5622 5614 5607 5601 5595 5587 5579 5571 5564 5557 5552 5546 5541 5536 5530 5523 5517 5509 5502 5495 5488 5480 5472 5459 5445 5429
5669 5654 5644 5657 5644 5654 5671 5664 5688 5711 5712 5714 5714 5702 5696 5686 5675 5669 5661 5652 5646 5638 5631 5624 5617 5609 5603 5596 5589 5582 5574 5567 5560 5553 5546 5540 5533 5527 5522 5516 5509 5501 5495 5487 5478 5470 5457 5444 5429
5665 5654 5635 5656 5640 5646 5660 5657 5697 5711 5709 5708 5711 5708 5697 5687 5681 5675 5670 5663 5654 5644 5634 5628 5619 5612 5606 5598 5591 5584 5577 5569 5562 5555 5548 5541 5533 5527 5522 5515 5509 5502 5495 5487 5478 5468 5457 5445 5431
5660 5647 5650 5638 5630 5630 5650 5674 5703 5710 5707 5708 5705 5701 5694 5687 5681 5677 5669 5665 5658 5649 5641 5632 5623 5616 5608 5600 5593 5586 5578 5570 5563 5556 5549 5543 5536 5530 5523 5516 5509 5502 5496 5486 5477 5468 5457 5445 5433
5656 5651 5641 5621 5626 5637 5643 5657 5674 5702 5698 5697 5696 5695 5693 5687 5681 5676 5670 5665 5658 5652 5644 5634 5627 5620 5612 5604 5597 5589 5581 5573 5566 5558 5551 5544 5538 5531 5523 5516 5510 5503 5496 5487 5479 5469 5459 5447 5435
5640 5639 5637 5626 5615 5611 5619 5652 5685 5700 5699 5693 5691 5692 5692 5688 5683 5679 5674 5668 5660 5652 5643 5636 5628 5621 5614 5607 5599 5591 5583 5576 5569 5561 5554 5547 5540 5532 5524 5518 5510 5504 5496 5487 5479 5471 5461 5450 5438
5652 5646 5636 5604 5631 5604 5575 5636 5691 5689 5691 5689 5691 5690 5687 5686 5685 5680 5674 5665 5658 5652 5644 5637 5631 5624 5618 5610 5601 5594 5586 5579 5571 5564 5557 5550 5542 5534 5526 5519 5511 5504 5497 5488 5480 5473 5464 5453 5441